{"data":{"norad_id":69302,"intl_designator":"2026-119G","name":"STARLINK-37804","alt_names":[],"object_type":"PAYLOAD","status":"ACTIVE","operator":null,"country":"US","launch_date":"2026-05-30","launch_site_code":"AFWTR","launch_vehicle":null,"mission":null,"orbit_class":"UNKNOWN","rcs_meters":null,"size_class":null,"mass_kg":null,"dimensions":null,"purposes":["comms"],"wikipedia_slug":null,"has_3d_model":false,"image_url":null,"decayed_at":null,"tle_current":{"epoch":"2026-09-20T01:22:43.508064Z","epoch_age_seconds":67250,"freshness":"FRESH","line1":"1 69302U 26119G   26263.05744801  .00007183  00000+0  22459-3 0  9990","line2":"2 69302  97.2833 287.7683 0001176 110.8187 249.3182 15.33449260 18595","mean_motion":15.3344926,"eccentricity":0.0001176,"inclination_deg":97.2833,"raan_deg":287.7683,"arg_perigee_deg":110.8187,"mean_anomaly_deg":249.3182,"bstar":0.00022459,"rev_number":1859,"period_min":93.905943780624,"perigee_km":464.72568444667,"apogee_km":466.33531504261,"semimajor_km":6843.6674997446,"source":"CELESTRAK","updated_at":"2026-09-20T09:00:44.155107Z"}}}